When you browse on this site, cookies collect data to enhance your experience and personalize the content and advertising you see.
Visit our Privacy Policy to learn more. By continuing to use the site, you agree to this use of cookies and data.
  • în România
  • Lista ţărilor
  • Pe 7 zile
  • Temperatura apei
  • Meteo pe hartă
  • Widget-uri
  • user-avatar
    Intrare

    Meteo pe oră la Belfast

    Astăzi, 23 Octombrie, Miercuri

    Timp Temperatura Precipitaţii Vânt Presiune Umiditate
    00:00 +8°C° 0 mm 6 m/s 759 mmHg 85%
    01:00 +7°C° 0 mm 6 m/s 758 mmHg 86%
    02:00 +7°C° 0 mm 5 m/s 758 mmHg 87%
    03:00 +7°C° 0 mm 5 m/s 757 mmHg 88%
    04:00 +7°C° 0 mm 6 m/s 757 mmHg 88%
    05:00 +7°C° 0 mm 6 m/s 757 mmHg 89%
    06:00 +7°C° 0 mm 6 m/s 756 mmHg 89%
    07:00 +8°C° 0 mm 6 m/s 756 mmHg 88%
    08:00 +8°C° 0 mm 7 m/s 755 mmHg 86%
    09:00 +9°C° 0 mm 7 m/s 755 mmHg 84%
    10:00 +9°C° 0 mm 8 m/s 754 mmHg 82%
    11:00 +10°C° 0 mm 8 m/s 753 mmHg 80%
    12:00 +11°C° 0 mm 9 m/s 753 mmHg 77%
    13:00 +11°C° 0 mm 9 m/s 752 mmHg 77%
    14:00 +11°C° 0 mm 8 m/s 751 mmHg 78%
    15:00 +11°C° 0 mm 8 m/s 750 mmHg 78%
    16:00 +10°C° 0.3 mm 8 m/s 750 mmHg 82%
    17:00 +10°C° 0.3 mm 8 m/s 749 mmHg 86%
    18:00 +9°C° 0.3 mm 8 m/s 748 mmHg 90%
    19:00 +9°C° 0.2 mm 7 m/s 748 mmHg 91%
    20:00 +9°C° 0.2 mm 7 m/s 748 mmHg 93%
    21:00 +10°C° 0.2 mm 6 m/s 748 mmHg 94%
    22:00 +9°C° 0 mm 5 m/s 748 mmHg 94%
    23:00 +9°C° 0 mm 5 m/s 748 mmHg 95%

    Mâine, 24 Octombrie, Joi

    Timp Temperatura Precipitaţii Vânt Presiune Umiditate
    00:00 +8°C° 0 mm 5 m/s 748 mmHg 95%
    01:00 +8°C° 0 mm 5 m/s 747 mmHg 95%
    02:00 +8°C° 0 mm 5 m/s 747 mmHg 94%
    03:00 +8°C° 0 mm 5 m/s 747 mmHg 94%
    04:00 +7°C° 0 mm 5 m/s 747 mmHg 94%
    05:00 +7°C° 0 mm 5 m/s 747 mmHg 94%
    06:00 +7°C° 0 mm 5 m/s 746 mmHg 94%
    07:00 +7°C° 0 mm 6 m/s 747 mmHg 92%
    08:00 +8°C° 0 mm 6 m/s 747 mmHg 91%
    09:00 +8°C° 0 mm 7 m/s 748 mmHg 90%
    10:00 +8°C° 0.1 mm 7 m/s 748 mmHg 84%
    11:00 +8°C° 0.1 mm 7 m/s 748 mmHg 79%
    12:00 +9°C° 0.1 mm 7 m/s 749 mmHg 74%
    13:00 +8°C° 0 mm 7 m/s 749 mmHg 71%
    14:00 +8°C° 0 mm 7 m/s 749 mmHg 69%
    15:00 +7°C° 0 mm 6 m/s 750 mmHg 66%
    16:00 +5°C° 0 mm 6 m/s 750 mmHg 69%
    17:00 +4°C° 0 mm 6 m/s 750 mmHg 72%
    18:00 +3°C° 0 mm 6 m/s 751 mmHg 75%
    19:00 +3°C° 0 mm 6 m/s 751 mmHg 76%
    20:00 +2°C° 0 mm 6 m/s 752 mmHg 77%
    21:00 +2°C° 0 mm 6 m/s 752 mmHg 78%
    22:00 +2°C° 0 mm 6 m/s 753 mmHg 77%
    23:00 +2°C° 0 mm 6 m/s 753 mmHg 77%

    Poimâine, 25 Octombrie, Vineri

    Timp Temperatura Precipitaţii Vânt Presiune Umiditate
    00:00 0°C° 0 mm 7 m/s 753 mmHg 76%
    01:00 +1°C° 0 mm 6 m/s 753 mmHg 76%
    02:00 +1°C° 0 mm 6 m/s 754 mmHg 75%
    03:00 -1°C° 0 mm 6 m/s 754 mmHg 75%
    04:00 0°C° 0 mm 5 m/s 754 mmHg 75%
    05:00 0°C° 0 mm 5 m/s 754 mmHg 76%
    06:00 0°C° 0 mm 5 m/s 754 mmHg 76%
    07:00 +1°C° 0 mm 5 m/s 754 mmHg 75%
    08:00 +2°C° 0 mm 5 m/s 754 mmHg 73%
    09:00 +2°C° 0 mm 6 m/s 754 mmHg 71%
    10:00 +3°C° 0 mm 5 m/s 753 mmHg 69%
    11:00 +5°C° 0 mm 5 m/s 753 mmHg 68%
    12:00 +5°C° 0 mm 4 m/s 752 mmHg 66%
    13:00 +5°C° 0 mm 3 m/s 751 mmHg 68%
    14:00 +5°C° 0 mm 3 m/s 750 mmHg 70%
    15:00 +6°C° 0 mm 2 m/s 749 mmHg 72%
    16:00 +4°C° 0 mm 3 m/s 749 mmHg 78%
    17:00 +3°C° 0 mm 3 m/s 749 mmHg 84%
    18:00 +1°C° 0 mm 4 m/s 749 mmHg 90%
    19:00 +1°C° 0 mm 5 m/s 750 mmHg 88%
    20:00 +1°C° 0 mm 5 m/s 750 mmHg 86%
    21:00 +1°C° 0 mm 6 m/s 751 mmHg 85%
    22:00 -1°C° 0 mm 6 m/s 751 mmHg 86%
    23:00 0°C° 0 mm 5 m/s 752 mmHg 88%

    26 Octombrie, Sâmbătă

    Timp Temperatura Precipitaţii Vânt Presiune Umiditate
    00:00 0°C° 0 mm 5 m/s 752 mmHg 89%
    01:00 0°C° 0 mm 5 m/s 753 mmHg 90%
    02:00 0°C° 0 mm 5 m/s 753 mmHg 90%
    03:00 0°C° 0 mm 4 m/s 754 mmHg 90%
    04:00 -1°C° 0 mm 4 m/s 754 mmHg 90%
    05:00 -1°C° 0 mm 4 m/s 754 mmHg 90%
    06:00 -1°C° 0 mm 4 m/s 754 mmHg 89%
    07:00 0°C° 0 mm 4 m/s 754 mmHg 87%
    08:00 +1°C° 0 mm 5 m/s 754 mmHg 85%
    09:00 +1°C° 0 mm 5 m/s 755 mmHg 83%
    10:00 +2°C° 0 mm 6 m/s 755 mmHg 80%
    11:00 +4°C° 0 mm 6 m/s 755 mmHg 77%
    12:00 +5°C° 0 mm 7 m/s 756 mmHg 74%
    13:00 +5°C° 0 mm 7 m/s 756 mmHg 71%
    14:00 +5°C° 0 mm 8 m/s 756 mmHg 69%
    15:00 +5°C° 0 mm 8 m/s 756 mmHg 66%
    16:00 +4°C° 0 mm 8 m/s 757 mmHg 69%
    17:00 +2°C° 0 mm 8 m/s 757 mmHg 72%
    18:00 +2°C° 0 mm 8 m/s 758 mmHg 74%
    19:00 +2°C° 0 mm 8 m/s 758 mmHg 77%
    20:00 +3°C° 0 mm 7 m/s 759 mmHg 80%
    21:00 +3°C° 0 mm 7 m/s 760 mmHg 84%
    22:00 +3°C° 0 mm 6 m/s 760 mmHg 85%
    23:00 +3°C° 0 mm 6 m/s 761 mmHg 87%

    27 Octombrie, Duminică

    Timp Temperatura Precipitaţii Vânt Presiune Umiditate
    00:00 +3°C° 0 mm 6 m/s 762 mmHg 88%
    01:00 +2°C° 0 mm 5 m/s 762 mmHg 89%
    02:00 +2°C° 0 mm 5 m/s 763 mmHg 89%
    03:00 +2°C° 0 mm 5 m/s 763 mmHg 90%
    04:00 +3°C° 0 mm 4 m/s 764 mmHg 90%
    05:00 +1°C° 0 mm 4 m/s 764 mmHg 90%
    06:00 +2°C° 0 mm 3 m/s 765 mmHg 90%
    07:00 +3°C° 0 mm 3 m/s 765 mmHg 88%
    08:00 +3°C° 0 mm 3 m/s 766 mmHg 86%
    09:00 +4°C° 0 mm 3 m/s 766 mmHg 84%
    10:00 +5°C° 0 mm 3 m/s 766 mmHg 81%
    11:00 +7°C° 0 mm 2 m/s 766 mmHg 77%
    12:00 +9°C° 0 mm 2 m/s 767 mmHg 74%
    13:00 +9°C° 0 mm 2 m/s 766 mmHg 74%
    14:00 +9°C° 0 mm 2 m/s 766 mmHg 75%
    15:00 +9°C° 0 mm 2 m/s 766 mmHg 75%
    16:00 +9°C° 0 mm 1 m/s 766 mmHg 79%
    17:00 +8°C° 0 mm 1 m/s 766 mmHg 82%
    18:00 +7°C° 0 mm 1 m/s 766 mmHg 86%
    19:00 +6°C° 0 mm 1 m/s 766 mmHg 86%
    20:00 +6°C° 0 mm 1 m/s 767 mmHg 86%
    21:00 +6°C° 0 mm 1 m/s 767 mmHg 85%
    22:00 +5°C° 0 mm 1 m/s 767 mmHg 86%
    23:00 +5°C° 0 mm 1 m/s 766 mmHg 87%

    28 Octombrie, Luni

    Timp Temperatura Precipitaţii Vânt Presiune Umiditate
    00:00 +4°C° 0 mm 2 m/s 766 mmHg 87%
    01:00 +4°C° 0 mm 2 m/s 766 mmHg 87%
    02:00 +4°C° 0 mm 2 m/s 766 mmHg 86%
    03:00 +4°C° 0 mm 2 m/s 766 mmHg 85%
    04:00 +5°C° 0 mm 2 m/s 766 mmHg 86%
    05:00 +4°C° 0 mm 3 m/s 766 mmHg 86%
    06:00 +4°C° 0 mm 3 m/s 766 mmHg 87%
    07:00 +5°C° 0 mm 4 m/s 766 mmHg 86%
    08:00 +5°C° 0 mm 4 m/s 766 mmHg 86%
    09:00 +6°C° 0 mm 5 m/s 766 mmHg 85%
    10:00 +5°C° 0 mm 6 m/s 766 mmHg 81%
    11:00 +7°C° 0 mm 6 m/s 766 mmHg 78%
    12:00 +7°C° 0 mm 6 m/s 766 mmHg 74%
    13:00 +6°C° 0 mm 7 m/s 766 mmHg 74%
    14:00 +6°C° 0 mm 7 m/s 765 mmHg 74%
    15:00 +6°C° 0 mm 7 m/s 765 mmHg 74%
    16:00 +5°C° 0 mm 7 m/s 765 mmHg 75%
    17:00 +5°C° 0 mm 7 m/s 765 mmHg 75%
    18:00 +5°C° 0 mm 7 m/s 765 mmHg 75%
    19:00 +5°C° 0 mm 8 m/s 765 mmHg 75%
    20:00 +5°C° 0 mm 8 m/s 765 mmHg 76%
    21:00 +5°C° 0 mm 8 m/s 765 mmHg 76%
    22:00 +5°C° 0 mm 8 m/s 765 mmHg 76%
    23:00 +5°C° 0 mm 9 m/s 765 mmHg 76%
    Arată mai mult